This demonstration page uses our WeatherBlox Daily Observations layout. Learn more.

Left ArrowRight Arrow

30.21309, -93.2044

Hourly Observations for July 31, 2022

Temp ( °F °C ) Dew Point ( °F °C ) Humidity (%) Winds ( mph kmh ) Pressure ( in mb ) Visibility ( mi km ) Precip ( " mm )
12:15 am 00:15 Clear 77 25.2 75 23.9 93 93 ESE 6 9 30.12 1020 10 16 0.00 0.00
12:35 am 00:35 Clear 77 24.9 75 23.7 93 93 ESE 3 6 30.12 1020 7 11 0.00 0.00
12:55 am 00:55 Clear 77 24.9 75 23.9 94 94 ESE 3 6 30.12 1020 7 11 0.00 0.00
1:15 am 01:15 Clear 77 24.8 75 23.9 95 95 Calm 30.11 1020 7 11 0.00 0.00
1:35 am 01:35 Clear with Mist and Fog 77 24.8 75 23.9 95 95 Calm 30.11 1020 7 11 0.00 0.00
1:55 am 01:55 Clear with Mist and Fog 76 24.6 75 23.7 95 95 SSE 3 6 30.10 1019 4 6 0.00 0.00
2:15 am 02:15 Clear with Mist and Fog 76 24.6 75 23.8 95 95 Calm 30.09 1019 4 6 0.00 0.00
2:35 am 02:35 Clear 77 25 76 24.2 95 95 Calm 30.09 1019 7 11 0.00 0.00
2:55 am 02:55 Clear 77 24.9 75 24 95 95 E 3 6 30.09 1019 7 11 0.00 0.00
3:15 am 03:15 Clear with Mist and Fog 76 24.5 75 23.7 95 95 Calm 30.09 1019 3 5 0.00 0.00
3:35 am 03:35 Clear with Mist and Fog 76 24.7 75 23.9 95 95 NNE 3 6 30.10 1019 7 11 0.00 0.00
3:55 am 03:55 Clear 76 24.6 75 23.8 95 95 ENE 3 6 30.10 1019 7 11 0.00 0.00
4:15 am 04:15 Clear 77 24.8 75 23.9 95 95 ENE 3 6 30.11 1020 10 16 0.00 0.00
4:35 am 04:35 Clear with Mist and Fog 76 24.3 74 23.3 94 94 E 5 7 30.10 1019 7 11 0.00 0.00
4:55 am 04:55 Clear with Mist and Fog 75 24 74 23.1 95 95 E 3 6 30.10 1019 4 6 0.00 0.00
5:15 am 05:15 Clear with Mist and Fog 75 24.1 74 23.3 95 95 ENE 3 6 30.11 1020 4 6 0.00 0.00
5:35 am 05:35 Clear with Mist and Fog 76 24.2 74 23.4 95 95 E 3 6 30.11 1020 5 8 0.00 0.00
6:00 am 06:00 Mostly Clear with Mist and Fog 75 24 75 24 100 100 Calm 30.11 1020 7 11 0.00 0.00
6:57 am 06:57 Partly Cloudy with Mist and Fog 75 24 73 23 94 94 E 5 7 30.12 1020 4 6 0.00 0.00
7:57 am 07:57 Partly Cloudy with Mist and Fog 79 26 75 24 89 89 ESE 5 7 30.12 1020 7 11 0.00 0.00
8:56 am 08:56 Partly Cloudy 82 28 79 26 89 89 ESE 6 9 30.14 1021 10 16 0.00 0.00
9:54 am 09:54 Partly Cloudy 84 29 79 26 84 84 ESE 5 7 30.15 1021 10 16 0.00 0.00
10:52 am 10:52 Mostly Cloudy 88 31 75 24 66 66 SE 5 7 30.15 1021 10 16 0.00 0.00
11:53 am 11:53 Partly Cloudy 90 32 73 23 59 59 SSE 6 9 30.15 1021 10 16 0.00 0.00
12:59 pm 12:59 Partly Cloudy 91 33 73 23 56 56 SE 6 9 30.13 1020 10 16 0.00 0.00
1:49 pm 13:49 Partly Cloudy 91 33 75 24 59 59 S 9 15 30.11 1020 10 16 0.00 0.00
2:47 pm 14:47 Mostly Cloudy 90 32 75 24 63 63 SE 13 20 30.11 1020 10 16 0.00 0.00
3:45 pm 15:45 Partly Cloudy 88 31 73 23 62 62 SSE 10 17 30.10 1019 10 16 0.00 0.00
4:52 pm 16:52 Partly Cloudy 88 31 73 23 62 62 SE 10 17 30.10 1019 10 16 0.00 0.00
5:53 pm 17:53 Partly Cloudy 88 31 73 23 62 62 SSE 10 17 30.09 1019 10 16 0.00 0.00
6:48 pm 18:48 Partly Cloudy 88 31 73 23 62 62 SE 10 17 30.09 1019 10 16 0.00 0.00
7:53 pm 19:53 Mostly Sunny 82 28 73 23 74 74 SSE 7 11 30.09 1019 10 16 0.00 0.00
8:47 pm 20:47 Mostly Clear 81 27 73 23 79 79 SE 7 11 30.09 1019 10 16 0.00 0.00
9:47 pm 21:47 Mostly Clear 79 26 73 23 84 84 SE 6 9 30.10 1019 10 16 0.00 0.00
10:15 pm 22:15 Clear 78 25.7 75 23.7 89 89 ESE 3 6 30.11 1020 10 16 0.00 0.00
10:35 pm 22:35 Clear 78 25.3 74 23.6 90 90 SSE 5 7 30.11 1020 10 16 0.00 0.00
10:55 pm 22:55 Clear 78 25.3 74 23.3 89 89 SE 5 7 30.12 1020 10 16 0.00 0.00
11:15 pm 23:15 Clear 78 25.4 74 23.4 89 89 Calm 30.11 1020 10 16 0.00 0.00
11:35 pm 23:35 Clear 78 25.3 74 23.3 89 89 ESE 3 6 30.11 1020 10 16 0.00 0.00
11:55 pm 23:55 Clear 77 25.1 74 23.1 89 89 ESE 6 9 30.11 1020 10 16 0.00 0.00

Powered by AerisWeather